When you browse on this site, cookies collect data to enhance your experience and personalize the content and advertising you see.
Visit our Privacy Policy to learn more. By continuing to use the site, you agree to this use of cookies and data.
  • în România
  • Lista ţărilor
  • Pe 7 zile
  • Temperatura apei
  • Hartă satelitară
  • Meteo pe hartă
  • Widget-uri
  • user-avatar
    Intrare

    Meteo pe oră la La Paz

    Astăzi, 16 Iunie, Duminică

    Timp Temperatura Precipitaţii Vânt Presiune Umiditate
    00:00 +5°C° 0 mm 1 m/s 473 mmHg 82%
    01:00 +4°C° 0 mm 0 m/s 473 mmHg 82%
    02:00 +3°C° 0 mm 0 m/s 472 mmHg 83%
    03:00 +3°C° 0 mm 0 m/s 472 mmHg 84%
    04:00 +2°C° 0 mm 0 m/s 471 mmHg 85%
    05:00 +4°C° 0 mm 1 m/s 472 mmHg 84%
    06:00 +5°C° 0 mm 1 m/s 473 mmHg 82%
    07:00 +4°C° 0 mm 2 m/s 474 mmHg 81%
    08:00 +5°C° 0 mm 2 m/s 475 mmHg 76%
    09:00 +7°C° 0 mm 2 m/s 476 mmHg 71%
    10:00 +8°C° 0 mm 2 m/s 477 mmHg 66%
    11:00 +9°C° 0.2 mm 2 m/s 477 mmHg 64%
    12:00 +9°C° 0.2 mm 3 m/s 476 mmHg 62%
    13:00 +10°C° 0.2 mm 3 m/s 476 mmHg 60%
    14:00 +9°C° 0.2 mm 3 m/s 475 mmHg 64%
    15:00 +7°C° 0.2 mm 4 m/s 475 mmHg 69%
    16:00 +6°C° 0.2 mm 4 m/s 474 mmHg 73%
    17:00 +6°C° 0 mm 4 m/s 474 mmHg 77%
    18:00 +5°C° 0 mm 4 m/s 474 mmHg 80%
    19:00 +4°C° 0 mm 3 m/s 474 mmHg 84%
    20:00 +4°C° 0 mm 3 m/s 474 mmHg 85%
    21:00 +4°C° 0 mm 2 m/s 474 mmHg 86%
    22:00 +4°C° 0 mm 2 m/s 474 mmHg 87%
    23:00 +4°C° 0 mm 2 m/s 474 mmHg 87%

    Mâine, 17 Iunie, Luni

    Timp Temperatura Precipitaţii Vânt Presiune Umiditate
    00:00 +5°C° 0 mm 1 m/s 474 mmHg 87%
    01:00 +5°C° 0 mm 1 m/s 474 mmHg 87%
    02:00 +4°C° 0.2 mm 1 m/s 474 mmHg 90%
    03:00 +3°C° 0.2 mm 2 m/s 474 mmHg 92%
    04:00 +3°C° 0.2 mm 2 m/s 473 mmHg 95%
    05:00 +2°C° 0.9 mm 2 m/s 474 mmHg 95%
    06:00 +3°C° 0.9 mm 1 m/s 474 mmHg 96%
    07:00 +3°C° 0.9 mm 1 m/s 474 mmHg 96%
    08:00 +4°C° 0.1 mm 1 m/s 475 mmHg 89%
    09:00 +4°C° 0.1 mm 2 m/s 475 mmHg 82%
    10:00 +6°C° 0.1 mm 2 m/s 476 mmHg 76%
    11:00 +7°C° 0.1 mm 2 m/s 477 mmHg 71%
    12:00 +8°C° 0.1 mm 3 m/s 477 mmHg 65%
    13:00 +9°C° 0.1 mm 3 m/s 477 mmHg 60%
    14:00 +9°C° 0 mm 3 m/s 477 mmHg 60%
    15:00 +9°C° 0 mm 3 m/s 476 mmHg 59%
    16:00 +9°C° 0 mm 3 m/s 476 mmHg 59%
    17:00 +7°C° 0 mm 2 m/s 475 mmHg 65%
    18:00 +6°C° 0 mm 2 m/s 474 mmHg 71%
    19:00 +5°C° 0 mm 1 m/s 473 mmHg 77%
    20:00 +5°C° 0 mm 1 m/s 473 mmHg 75%
    21:00 +5°C° 0 mm 1 m/s 473 mmHg 74%
    22:00 +4°C° 0 mm 1 m/s 473 mmHg 73%
    23:00 +4°C° 0 mm 1 m/s 473 mmHg 72%

    Poimâine, 18 Iunie, Marţi

    Timp Temperatura Precipitaţii Vânt Presiune Umiditate
    00:00 +4°C° 0 mm 1 m/s 473 mmHg 72%
    01:00 +4°C° 0 mm 1 m/s 473 mmHg 71%
    02:00 +4°C° 0 mm 1 m/s 472 mmHg 71%
    03:00 +3°C° 0 mm 1 m/s 472 mmHg 71%
    04:00 +2°C° 0 mm 0 m/s 472 mmHg 71%
    05:00 +3°C° 0 mm 0 m/s 473 mmHg 67%
    06:00 +4°C° 0 mm 0 m/s 474 mmHg 63%
    07:00 +7°C° 0 mm 1 m/s 475 mmHg 59%
    08:00 +8°C° 0 mm 1 m/s 476 mmHg 53%
    09:00 +10°C° 0 mm 1 m/s 477 mmHg 47%
    10:00 +12°C° 0 mm 1 m/s 478 mmHg 41%
    11:00 +12°C° 0 mm 2 m/s 478 mmHg 40%
    12:00 +13°C° 0 mm 2 m/s 478 mmHg 40%
    13:00 +13°C° 0 mm 3 m/s 478 mmHg 39%
    14:00 +13°C° 0 mm 3 m/s 478 mmHg 40%
    15:00 +12°C° 0 mm 3 m/s 477 mmHg 41%
    16:00 +12°C° 0 mm 3 m/s 476 mmHg 42%
    17:00 +10°C° 0 mm 2 m/s 476 mmHg 48%
    18:00 +9°C° 0 mm 1 m/s 475 mmHg 54%
    19:00 +7°C° 0 mm 1 m/s 474 mmHg 60%
    20:00 +7°C° 0 mm 1 m/s 474 mmHg 60%
    21:00 +5°C° 0 mm 0 m/s 474 mmHg 61%
    22:00 +5°C° 0 mm 0 m/s 474 mmHg 61%
    23:00 +4°C° 0 mm 0 m/s 473 mmHg 62%

    19 Iunie, Miercuri

    Timp Temperatura Precipitaţii Vânt Presiune Umiditate
    00:00 +4°C° 0 mm 0 m/s 473 mmHg 63%
    01:00 +4°C° 0 mm 0 m/s 472 mmHg 63%
    02:00 +3°C° 0 mm 0 m/s 472 mmHg 64%
    03:00 +3°C° 0 mm 0 m/s 472 mmHg 64%
    04:00 +2°C° 0 mm 0 m/s 471 mmHg 65%
    05:00 +4°C° 0 mm 1 m/s 473 mmHg 63%
    06:00 +6°C° 0 mm 1 m/s 474 mmHg 62%
    07:00 +7°C° 0 mm 1 m/s 476 mmHg 60%
    08:00 +8°C° 0 mm 1 m/s 477 mmHg 57%
    09:00 +9°C° 0 mm 2 m/s 478 mmHg 53%
    10:00 +10°C° 0 mm 2 m/s 479 mmHg 49%
    11:00 +12°C° 0 mm 2 m/s 479 mmHg 50%
    12:00 +12°C° 0 mm 2 m/s 478 mmHg 50%
    13:00 +12°C° 0 mm 3 m/s 478 mmHg 51%
    14:00 +11°C° 0.1 mm 3 m/s 477 mmHg 55%
    15:00 +11°C° 0.1 mm 3 m/s 477 mmHg 58%
    16:00 +10°C° 0.1 mm 3 m/s 476 mmHg 62%
    17:00 +9°C° 0 mm 2 m/s 476 mmHg 69%
    18:00 +7°C° 0 mm 2 m/s 475 mmHg 76%
    19:00 +7°C° 0 mm 1 m/s 474 mmHg 83%
    20:00 +6°C° 0 mm 1 m/s 474 mmHg 84%
    21:00 +6°C° 0 mm 1 m/s 474 mmHg 84%
    22:00 +5°C° 0 mm 1 m/s 474 mmHg 85%
    23:00 +4°C° 0 mm 1 m/s 473 mmHg 84%

    20 Iunie, Joi

    Timp Temperatura Precipitaţii Vânt Presiune Umiditate
    00:00 +4°C° 0 mm 1 m/s 473 mmHg 84%
    01:00 +4°C° 0 mm 1 m/s 473 mmHg 83%
    02:00 +3°C° 0 mm 1 m/s 472 mmHg 82%
    03:00 +3°C° 0 mm 1 m/s 472 mmHg 81%
    04:00 +3°C° 0 mm 1 m/s 472 mmHg 80%
    05:00 +4°C° 0 mm 1 m/s 473 mmHg 79%
    06:00 +4°C° 0 mm 1 m/s 474 mmHg 78%
    07:00 +5°C° 0 mm 1 m/s 475 mmHg 78%
    08:00 +7°C° 0 mm 1 m/s 476 mmHg 68%
    09:00 +9°C° 0 mm 1 m/s 477 mmHg 59%
    10:00 +9°C° 0 mm 2 m/s 479 mmHg 49%
    11:00 +10°C° 0 mm 2 m/s 479 mmHg 48%
    12:00 +12°C° 0 mm 2 m/s 479 mmHg 46%
    13:00 +12°C° 0 mm 3 m/s 479 mmHg 44%
    14:00 +11°C° 0 mm 3 m/s 478 mmHg 48%
    15:00 +11°C° 0 mm 3 m/s 478 mmHg 51%
    16:00 +10°C° 0 mm 3 m/s 477 mmHg 55%
    17:00 +9°C° 0 mm 2 m/s 476 mmHg 63%
    18:00 +7°C° 0 mm 2 m/s 475 mmHg 71%
    19:00 +6°C° 0 mm 1 m/s 474 mmHg 79%
    20:00 +6°C° 0 mm 1 m/s 474 mmHg 79%
    21:00 +5°C° 0 mm 1 m/s 474 mmHg 79%
    22:00 +5°C° 0 mm 1 m/s 474 mmHg 79%
    23:00 +5°C° 0 mm 1 m/s 474 mmHg 74%

    21 Iunie, Vineri

    Timp Temperatura Precipitaţii Vânt Presiune Umiditate
    00:00 +4°C° 0 mm 1 m/s 473 mmHg 70%
    01:00 +4°C° 0 mm 1 m/s 473 mmHg 66%
    02:00 +4°C° 0 mm 1 m/s 473 mmHg 66%
    03:00 +4°C° 0 mm 1 m/s 473 mmHg 66%
    04:00 +3°C° 0 mm 1 m/s 472 mmHg 66%
    05:00 +4°C° 0 mm 1 m/s 474 mmHg 65%
    06:00 +5°C° 0 mm 1 m/s 475 mmHg 64%
    07:00 +6°C° 0 mm 1 m/s 476 mmHg 64%
    08:00 +8°C° 0 mm 1 m/s 477 mmHg 57%
    09:00 +10°C° 0 mm 1 m/s 478 mmHg 50%
    10:00 +11°C° 0 mm 1 m/s 480 mmHg 43%
    11:00 +12°C° 0 mm 2 m/s 479 mmHg 43%
    12:00 +13°C° 0 mm 2 m/s 479 mmHg 43%
    13:00 +13°C° 0 mm 2 m/s 479 mmHg 42%
    14:00 +13°C° 0 mm 2 m/s 479 mmHg 46%
    15:00 +12°C° 0 mm 2 m/s 478 mmHg 49%
    16:00 +11°C° 0 mm 3 m/s 477 mmHg 53%
    17:00 +9°C° 0 mm 2 m/s 477 mmHg 61%
    18:00 +9°C° 0 mm 1 m/s 476 mmHg 69%
    19:00 +7°C° 0 mm 1 m/s 475 mmHg 77%
    20:00 +6°C° 0 mm 1 m/s 475 mmHg 77%
    21:00 +5°C° 0 mm 0 m/s 475 mmHg 77%
    22:00 +5°C° 0 mm 0 m/s 474 mmHg 76%
    23:00 +4°C° 0 mm 0 m/s 474 mmHg 74%
    Arată mai mult